Namest Nad Oslav, Czech Republic

9:25 AM CEST on October 22, 2017 (GMT +0200)
Namest

Weather History for LKNA - October, 2013

Change the Weather History Date:

Saturday, October 5, 2013

  Actual Average Record
Temperature  
Mean Temperature 43 °F -  
Max Temperature 51 °F - - ()
Min Temperature 35 °F - - ()
Degree Days  
Heating Degree Days 22    
Moisture  
Dew Point 32 °F    
Average Humidity 64    
Maximum Humidity 75    
Minimum Humidity 50    
Precipitation  
Precipitation 0.00 in - - ()
Sea Level Pressure  
Sea Level Pressure 30.16 in    
Wind  
Wind Speed 10 mph ()    
Max Wind Speed 20 mph    
Max Gust Speed 29 mph    
Visibility 6.2 miles    
Events      
T = Trace of Precipitation, MM = Missing Value Source: Averaged Metar Reports

Daily Weather History Graph

Daily Weather History Graph

Search for Another Location

Airport or City:

Trip Planner

Search our weather history database for the weather conditions in past years. The results will help you decide how hot, cold, wet, or windy it might be!

Date:

Astronomy

Oct. 05, 2013 Rise Set
Actual Time 7:01 AM CEST 6:25 PM CEST
Civil Twilight 6:29 AM CEST 6:57 PM CEST
Nautical Twilight 5:52 AM CEST 7:34 PM CEST
Astronomical Twilight 5:15 AM CEST 8:11 PM CEST
Moon 7:26 AM CEST (10/5) 6:26 PM CEST (10/5)
Length of Visible Light 12h 28m
Length of Day
11h 24m
New Moon, 0% of the Moon is Illuminated
Oct 5
New Moon
Oct 12
First Quarter
Oct 19
Full
Oct 27
Last Quarter
Nov 3
New

Hourly Weather History & Observations

Time (CEST) Temp. Windchill Dew Point Humidity Pressure Visibility Wind Dir Wind Speed Gust Speed Precip Events Conditions
12:00 AM 37.4 °F 31.4 °F 28.4 °F 70% 30.27 in - ESE 8.1 mph - N/A   Clear
1:00 AM 39.2 °F 33.0 °F 30.2 °F 70% 30.27 in - ESE 9.2 mph - N/A   Clear
2:00 AM 37.4 °F 30.3 °F 28.4 °F 70% 30.24 in - ESE 10.4 mph - N/A   Clear
3:00 AM 37.4 °F 30.8 °F 30.2 °F 75% 30.24 in - ESE 9.2 mph - N/A   Clear
4:00 AM 35.6 °F 28.6 °F 26.6 °F 70% 30.21 in - ESE 9.2 mph - N/A   Clear
5:00 AM 35.6 °F 28.6 °F 28.4 °F 75% 30.18 in - ESE 9.2 mph - N/A   Clear
6:00 AM 35.6 °F 28.6 °F 28.4 °F 75% 30.18 in - ESE 9.2 mph - N/A   Clear
7:00 AM 35.6 °F 28.6 °F 28.4 °F 75% 30.18 in - ESE 9.2 mph - N/A   Clear
8:00 AM 35.6 °F 28.6 °F 28.4 °F 75% 30.15 in - ESE 9.2 mph - N/A   Clear
9:00 AM 39.2 °F 31.2 °F 30.2 °F 70% 30.15 in - ESE 13.8 mph - N/A   Clear
10:00 AM 41.0 °F 32.8 °F 32.0 °F 70% 30.15 in - ESE 16.1 mph - N/A   Clear
11:00 AM 46.4 °F 39.0 °F 32.0 °F 57% 30.15 in - SE 19.6 mph - N/A   Clear
12:00 PM 48.2 °F - 32.0 °F 54% 30.15 in - SE 16.1 mph 28.8 mph N/A   Clear
1:00 PM 50.0 °F - 32.0 °F 50% 30.15 in - SE 15.0 mph - N/A   Clear
2:00 PM 51.8 °F - 33.8 °F 50% 30.12 in - SE 19.6 mph - N/A   Clear
3:00 PM 50.0 °F - 33.8 °F 54% 30.12 in - SE 16.1 mph 28.8 mph N/A   Clear
4:00 PM 50.0 °F - 33.8 °F 54% 30.12 in - SE 13.8 mph - N/A   Clear
5:00 PM 50.0 °F - 33.8 °F 54% 30.09 in - SE 12.7 mph - N/A   Clear
6:00 PM 48.2 °F - 33.8 °F 58% 30.12 in - SE 10.4 mph - N/A   Clear
7:00 PM 46.4 °F 42.4 °F 33.8 °F 62% 30.12 in 6.2 mi SE 8.1 mph - N/A   Mostly Cloudy
8:00 PM 48.2 °F - 35.6 °F 62% 30.12 in 6.2 mi SE 8.1 mph - N/A   Mostly Cloudy
9:00 PM 46.4 °F 41.9 °F 35.6 °F 66% 30.12 in 6.2 mi SSE 9.2 mph - N/A   Overcast
10:00 PM 48.2 °F - 37.4 °F 66% 30.12 in 6.2 mi SSE 8.1 mph - N/A   Overcast
11:00 PM 48.2 °F - 37.4 °F 66% 30.12 in 6.2 mi SE 5.8 mph - N/A   Overcast